Location: Oriwa
(40.7500°S, 175.3333°E)
Time: 14:14:45
(UTC+00:00)

Cosmos 2195 Rocket - Pass Details

Date: 03 February 2023
Orbit: 948 x 993 km, 82.9° (Epoch: 30 March)

Event Time Altitude Azimuth Distance (km) Brightness Sun altitude
Rises 16:51:04 0° 190° (S) 3,659 7.8 -7.3°
Reaches altitude 10° 16:53:35 10° 191° (S) 2,705 7.1 -6.8°
Maximum altitude 16:59:44 74° 274° (W) 997 4.5 -5.8°
Drops below altitude 10° 17:05:50 10° 358° (N) 2,677 6.5 -4.8°
Sets 17:08:19 0° 359° (N) 3,618 7.2 -4.4°
